Weather History for Detroit, MI

Change the Weather History Date:

Sunday, April 7, 2013

  Actual Average Record
Temperature  
Mean Temperature 50 °F -  
Max Temperature 59 °F 53 °F 83 °F (1991)
Min Temperature 41 °F 35 °F 17 °F (1982)
Degree Days  
Heating Degree Days 15    
Moisture  
Dew Point 35 °F    
Average Humidity 52    
Maximum Humidity 70    
Minimum Humidity 31    
Precipitation  
Precipitation 0.00 in - - ()
Sea Level Pressure  
Sea Level Pressure 29.83 in    
Wind  
Wind Speed 15 mph (West)    
Max Wind Speed 23 mph    
Max Gust Speed 52 mph    
Visibility 10 miles    
Events      
Averages and records for this station are not official NWS values.
T = Trace of Precipitation, MM = Missing Value Source: NWS Daily Summary

Daily Weather History Graph

Daily Weather History Graph

Search for Another Location

Airport:

Trip Planner

Search our weather history database for the weather conditions in past years. The results will help you decide how hot, cold, wet, or windy it might be!

Date:

Astronomy

Apr. 07, 2013 Rise Set
Actual Time 7:03 AM EDT 8:05 PM EDT
Civil Twilight 6:35 AM EDT 8:33 PM EDT
Nautical Twilight 6:00 AM EDT 9:08 PM EDT
Astronomical Twilight 5:25 AM EDT 9:43 PM EDT
Moon 5:23 AM EDT (4/7) 5:33 PM EDT (4/7)
Length of Visible Light 13h 58m
Length of Day
13h 01m
Waning Crescent, 8% of the Moon is Illuminated
Apr 7
Waning Crescent
Apr 10
New
Apr 18
First Quarter
Apr 25
Full
May 2
Last Quarter

Hourly Weather History & Observations

Time (EDT) Temp. Windchill Dew Point Humidity Pressure Visibility Wind Dir Wind Speed Gust Speed Precip Events Conditions
12:53 AM 50.0 °F - 21.9 °F 33% 29.80 in 10.0 mi South 13.8 mph - N/A   Overcast
1:53 AM 54.0 °F - 24.1 °F 31% 29.75 in 10.0 mi South 18.4 mph 28.8 mph N/A   Mostly Cloudy
2:53 AM 55.0 °F - 28.0 °F 35% 29.71 in 10.0 mi South 18.4 mph 27.6 mph N/A   Overcast
3:53 AM 55.9 °F - 32.0 °F 40% 29.67 in 10.0 mi SSW 18.4 mph 26.5 mph 0.00 in   Overcast
4:53 AM 55.9 °F - 34.0 °F 44% 29.65 in 10.0 mi SSW 17.3 mph 25.3 mph N/A   Partly Cloudy
5:53 AM 57.9 °F - 39.0 °F 49% 29.63 in 10.0 mi SW 23.0 mph 27.6 mph N/A   Scattered Clouds
6:53 AM 57.0 °F - 39.9 °F 53% 29.63 in 10.0 mi SW 18.4 mph 26.5 mph N/A   Partly Cloudy
7:53 AM 57.9 °F - 42.1 °F 56% 29.65 in 10.0 mi WSW 23.0 mph 51.8 mph N/A   Mostly Cloudy
8:53 AM 57.9 °F - 44.1 °F 60% 29.68 in 10.0 mi West 17.3 mph 33.4 mph N/A   Overcast
9:53 AM 57.9 °F - 44.1 °F 60% 29.71 in 10.0 mi West 13.8 mph 25.3 mph N/A   Overcast
10:53 AM 57.0 °F - 43.0 °F 59% 29.76 in 10.0 mi West 17.3 mph 35.7 mph N/A   Mostly Cloudy
11:53 AM 53.1 °F - 39.0 °F 59% 29.81 in 10.0 mi West 17.3 mph 32.2 mph N/A   Overcast
12:53 PM 53.1 °F - 37.9 °F 57% 29.84 in 10.0 mi West 18.4 mph 31.1 mph N/A   Mostly Cloudy
1:53 PM 53.1 °F - 36.0 °F 52% 29.87 in 10.0 mi West 17.3 mph 25.3 mph N/A   Mostly Cloudy
2:53 PM 54.0 °F - 36.0 °F 51% 29.90 in 10.0 mi West 12.7 mph 23.0 mph N/A   Mostly Cloudy
3:53 PM 53.1 °F - 35.1 °F 50% 29.93 in 10.0 mi WNW 16.1 mph 21.9 mph N/A   Mostly Cloudy
4:53 PM 53.1 °F - 34.0 °F 48% 29.95 in 10.0 mi WNW 11.5 mph - N/A   Mostly Cloudy
5:53 PM 51.1 °F - 33.1 °F 50% 29.97 in 10.0 mi NW 11.5 mph - N/A   Clear
6:53 PM 51.1 °F - 33.1 °F 50% 29.98 in 10.0 mi NW 8.1 mph - N/A   Clear
7:53 PM 48.0 °F - 32.0 °F 54% 29.99 in 10.0 mi NNW 5.8 mph - N/A   Clear
8:53 PM 45.0 °F 41.2 °F 32.0 °F 60% 30.01 in 10.0 mi North 6.9 mph - N/A   Clear
9:53 PM 44.1 °F 40.1 °F 32.0 °F 63% 30.04 in 10.0 mi North 6.9 mph - N/A   Clear
10:53 PM 43.0 °F 41.3 °F 32.0 °F 65% 30.04 in 10.0 mi NNE 3.5 mph - N/A   Clear
11:53 PM 41.0 °F 37.1 °F 32.0 °F 70% 30.04 in 10.0 mi NNE 5.8 mph - N/A   Clear